Погода в Уваровке

Россия / Самарская область     53°07′25″N   48°21′41″E
темп.,
°C
ветер,
м/с
пор.,
м/с
влажн.,
%
обл.,
%
осадки,
мм/ч
давл.,
гПа
погр.,
м
7 марта, вс
вс701:00−13зюз118699 0.0 101321
04:00−15з118967 0.0 101320
07:00−15з119424 0.0 101220
10:00−10зюз249462 0.2 1013186
13:00−7з468990 0.0 1012503
16:00−7юз598382 0.1 1011623
19:00−8ююз8148997 0.0 1009603
22:00−7ююз9179098 0.1 1007855
8 марта, пн
пн801:00−5юз111892100 0.4 10031032
04:00−5юз101888100 0.9 1000822
07:00−4юз10179093 0.1 999937
10:00−4з5128779 0.4 1002906
13:00−3зюз610765 0.0 10031066
16:00−3юз699150 0.1 1002706
19:00−4юз41092100 0.4 1001323
22:00−5зюз6148698 0.4 1003409
9 марта, вт
вт901:00−9зюз6119021 0.0 1004249
04:00−13з489011 0.0 1006129
07:00−14з599264 0.0 1008152
10:00−12зсз489132 0.0 1009225
13:00−9зсз47890 0.0 1010414
16:00−8зсз578627 0.0 1011688
19:00−12зсз499041 0.0 1012148
22:00−15сз369568 0.1 1014111
10 марта, ср
ср1001:00−19сз349622 0.0 101561
04:00−21зсз469712 0.0 101680
07:00−22зсз47960 0.0 1017115
10:00−20сз58950 0.0 1018259
13:00−16сз478972 0.0 1019583
16:00−15сз468786 0.1 1019896
19:00−19ссз3896100 0.1 1021201
22:00−23сз499484 0.1 1023178
11 марта, чт
чт1101:00−26зсз44950 0.0 102479
04:00−27зсз33950 0.0 102637
07:00−27з33920 0.0 102736
10:00−22зсз47880 0.0 1028214
13:00−17з47860 0.0 1028342
16:00−13з48840 0.0 1028483
19:00−16з34860 0.0 102842
22:00−18з45900 0.0 103078